Location: Newark
(25.4800°N, 85.7200°E)
Time: 15:03:44
(UTC+00:00)

Transit 4A - Pass Details

Date: 26 August 2019
Orbit: 867 x 978 km, 66.8° (Epoch: 23 October)

Event Time Altitude Azimuth Distance (km) Brightness Sun altitude
Rises 11:26:20 0° 221° (SW) 3,638 11.6 16.3°
Reaches altitude 10° 11:29:02 10° 229° (SW) 2,703 11.1 15.7°
Maximum altitude 11:34:56 40° 297° (WNW) 1,400 10.0 14.3°
Drops below altitude 10° 11:40:53 10° 6° (N) 2,724 10.4 13.0°
Sets 11:43:38 0° 14° (NNE) 3,669 10.9 12.4°
